RH
12 15 17 19 21 19 32 46 52 51 36 23 30 58 67 44 30 19 21 23 25 26 26 28 31 33 35 39 43 49 53 54
14 21 24 18 14 15 18 26 49 65 42 35 65 35 25 19 21 22 24 26 28 29 31 31 34 32 33 36 37 41 50 48
15 17 18 17 18 17 17 20 51 55 30 48 25 19 20 21 22 24 26 27 27 29 29 32 32 31 31 27 25 30 41 41
18 17 18 18 22 23 23 43 48 52 37 23 18 20 22 23 24 25 23 22 20 20 22 24 25 28 25 25 27 35 46 54
28 26 23 19 19 24 36 58 28 55 23 18 19 21 24 25 24 20 19 19 19 22 22 23 25 26 28 32 41 61 76 43
19 26 20 13 13 30 32 46 24 42 35 21 22 22 21 19 18 18 19 19 21 24 25 24 25 27 33 39 94 100 91 53
36 20 19 19 21 28 31 23 19 36 34 19 18 18 19 19 18 19 20 22 23 22 23 25 29 38 45 42 59 59 52 55
16 15 16 17 17 16 20 40 23 18 17 18 19 19 19 19 21 22 24 25 24 28 38 43 45 57 54 42 47 52 55 66
17 15 16 15 22 43 32 40 27 19 19 19 19 19 19 16 17 20 22 23 47 84 56 56 57 80 100 80 60 59 73 80
16 16 16 17 31 32 47 21 18 19 16 18 24 19 12 11 21 31 52 74 85 71 72 65 53 100 99 73 60 81 89 89
17 18 18 19 34 39 24 17 17 18 25 31 47 56 82 76 65 94 96 97 86 74 68 50 62 67 75 71 85 83 88 95
19 19 19 18 18 18 18 17 19 33 52 78 97 90 83 96 100 100 100 100 87 74 51 63 72 77 87 95 85 91 91 76
21 23 20 20 19 20 21 28 45 59 60 74 93 100 100 93 99 89 92 76 56 62 74 81 75 94 96 90 89 94 91 91
22 24 23 19 17 25 34 54 56 68 92 100 100 96 71 93 62 76 78 57 65 77 77 84 100 100 100 100 100 100 100 100
19 15 11 23 29 51 75 50 89 96 88 95 100 81 83 70 57 72 69 69 67 86 97 96 95 90 94 99 100 100 100 100
18 35 29 43 56 44 53 60 78 85 90 95 80 96 67 57 65 66 65 78 91 92 96 91 91 96 98 100 100 100 100 100
22 19 47 41 57 56 56 73 81 88 90 52 80 79 61 75 64 78 93 98 100 100 99 96 100 100 100 100 100 100 100 100
30 30 25 18 21 61 68 75 69 55 58 67 74 77 70 90 93 98 100 99 89 94 100 100 100 100 100 100 100 100 97 66
19 15 13 12 12 15 21 23 32 62 72 61 55 83 100 100 100 94 86 95 100 100 100 100 100 100 100 100 94 50 18 15
Wind_Speed
6 5 3 3 1 2 3 4 7 9 12 14 15 17 18 19 17 15 18 21 23 26 29 32 34 38 39 39 41 42 42 43
5 5 2 5 6 8 8 11 13 14 15 15 17 16 15 14 16 19 23 26 29 33 35 38 40 43 44 45 47 47 47 48
3 6 6 7 10 13 13 16 15 15 16 15 14 12 14 19 23 26 30 32 36 38 40 43 45 47 48 50 51 50 50 53
3 4 4 4 7 13 17 14 13 13 14 13 14 16 20 25 28 31 35 38 41 44 45 47 49 50 51 53 54 54 54 58
7 7 8 7 9 12 15 12 12 12 14 16 19 22 26 30 33 36 39 42 44 45 49 50 51 52 52 53 52 52 56 59
5 6 7 11 11 10 9 8 11 13 15 20 24 27 31 35 38 40 43 46 47 46 48 51 53 55 54 55 54 59 62 62
6 2 3 5 8 9 9 9 14 18 21 26 28 31 35 39 42 44 46 47 48 52 52 53 53 55 55 54 53 58 61 64
4 4 4 3 7 10 14 15 18 22 25 28 31 35 40 43 45 47 48 51 54 54 55 58 56 57 56 58 60 62 64 64
5 3 5 9 12 15 19 19 22 26 29 32 34 40 44 47 49 50 53 54 53 55 56 59 63 58 61 65 65 65 65 65
6 7 10 14 17 20 22 25 29 31 33 36 39 45 48 50 50 52 51 51 51 57 59 60 57 58 67 67 67 66 66 69
11 12 14 18 21 26 29 32 35 39 40 41 43 44 41 46 48 46 49 51 57 59 61 60 57 59 64 67 67 68 71 74
14 16 18 21 25 30 34 38 42 43 41 40 42 45 47 48 49 49 53 56 60 62 61 60 62 63 66 67 69 72 75 78
19 21 22 25 28 32 37 41 42 42 45 45 48 50 46 50 51 54 56 60 60 59 62 64 64 65 67 72 75 76 79 82
25 25 28 31 33 36 36 35 37 39 41 47 50 47 57 53 57 53 56 58 60 60 63 63 62 66 73 78 84 89 87 84
27 30 32 33 33 33 32 40 39 41 44 42 43 56 52 57 55 54 58 61 63 62 63 64 68 71 74 79 87 88 84 78
31 32 35 36 36 41 42 40 41 45 45 49 55 48 56 55 57 59 60 61 61 62 66 70 75 77 80 82 84 83 76 76
36 38 38 40 41 43 42 43 41 44 45 53 51 50 56 57 59 59 58 60 62 65 74 76 76 80 83 83 79 75 80 83
39 42 45 45 46 39 41 36 41 48 50 49 51 54 57 58 58 58 59 64 67 67 73 80 83 86 82 79 78 81 77 69
40 42 44 47 48 48 47 48 49 47 49 53 54 55 56 58 59 63 67 71 70 73 76 80 84 81 79 79 77 69 62 60
Wind_Direction
152 148 149 126 144 337 317 305 310 321 319 313 302 297 300 300 301 304 301 305 308 305 307 310 307 305 307 307 306 309 310 309
139 138 56 342 334 335 332 320 317 314 312 300 293 293 297 296 301 306 308 308 309 310 310 310 309 310 311 309 308 307 307 307
131 72 43 13 339 328 325 313 303 301 293 285 293 297 311 312 311 310 308 310 311 311 312 313 311 309 308 307 308 307 307 306
352 351 356 351 318 311 313 307 300 297 292 301 305 313 312 307 308 308 308 311 311 313 314 311 309 309 309 309 307 305 304 307
275 286 304 299 299 304 304 304 305 300 308 298 305 308 305 303 305 306 308 309 312 313 309 308 307 306 308 307 306 306 304 305
291 283 272 281 285 289 291 287 298 293 296 300 300 301 302 304 305 307 308 311 311 308 304 302 305 305 305 305 306 302 302 304
308 10 206 250 280 282 287 299 300 297 301 297 300 303 304 304 305 306 307 305 302 301 301 302 302 305 307 306 300 301 304 307
353 12 11 322 286 287 292 295 294 295 296 300 303 305 303 304 305 305 304 303 304 305 307 308 310 308 310 309 307 306 306 307
297 317 299 290 291 288 289 294 298 299 300 302 304 300 300 303 305 306 306 308 308 308 308 308 309 301 304 306 304 304 304 304
281 289 296 297 290 292 297 301 300 299 299 299 298 300 304 307 309 309 307 305 304 304 307 304 304 296 299 301 301 303 304 303
289 300 294 294 301 303 304 302 301 301 297 297 295 301 297 301 307 301 301 301 301 302 303 303 300 297 297 300 302 303 304 304
291 290 293 297 299 299 299 298 299 298 297 292 287 300 302 301 298 298 296 299 301 302 303 302 301 301 300 302 303 304 303 304
284 287 288 288 290 291 292 296 297 295 296 297 303 302 295 296 298 296 297 302 302 302 303 304 303 303 303 303 303 303 303 305
278 280 279 279 284 287 292 287 289 290 296 299 295 293 302 300 300 300 300 299 301 302 301 301 300 302 304 307 307 302 301 304
273 280 284 291 294 292 288 302 293 290 292 291 284 296 295 297 302 299 300 301 302 302 302 302 302 303 303 304 302 303 307 304
298 297 302 302 295 302 301 297 298 290 286 286 291 289 299 302 301 301 301 302 303 303 303 303 303 303 303 302 305 308 302 298
298 303 301 299 297 301 299 295 290 284 282 293 292 293 300 299 301 303 303 303 303 301 301 303 304 304 305 307 306 301 299 304
297 297 297 298 298 293 294 279 279 289 293 294 297 298 300 301 302 302 303 302 303 299 300 299 300 305 308 306 301 301 312 319
291 294 297 297 296 295 295 296 297 298 296 296 298 300 301 302 304 304 306 307 304 301 300 300 302 308 305 301 311 319 317 313